EW0538 Weather Reports


Display with metric or nautical units.
time (UTC)temp
F
wind
direction
speed
MPH
gust
MPH
rain 1hr
in
rain 24hr
in
rain mn
in
humidity
%
barometer
mb
20260902165242 71 291 0.0 1.0 0.00 0.02 0.00 52 1013.6
20260902164239 69 4 0.0 0.0 0.00 0.02 0.00 53 1013.7
20260902163236 67 4 0.0 2.0 0.00 0.02 0.00 55 1013.8
20260902162218 66 346 0.0 1.0 0.00 0.02 0.00 58 1014.1
20260902160100 64 4 0.0 3.0 0.00 0.02 0.00 61 1014.4
20260902155037 63 112 0.0 1.0 0.00 0.02 0.00 62 1014.6
20260902154009 62 136 0.0 0.0 0.00 0.02 0.00 68 1014.6
20260902152957 61 350 0.0 2.0 0.00 0.02 0.00 65 1014.8
20260902150820 60 40 0.0 1.0 0.00 0.02 0.00 70 1015.3
20260902145845 59 133 0.0 1.0 0.00 0.02 0.00 73 1015.5
20260902144817 58 231 0.0 0.0 0.00 0.02 0.00 76 1015.6
20260902143815 56 231 0.0 0.0 0.00 0.02 0.00 80 1015.6
20260902142813 55 151 0.0 0.0 0.00 0.02 0.00 82 1015.8
20260902140704 53 118 0.0 0.0 0.00 0.02 0.00 90 1015.8
20260902135637 49 120 0.0 1.0 0.00 0.02 0.00 95 1015.9
20260902134611 47 322 0.0 0.0 0.00 0.02 0.00 97 1016.0
20260902133556 46 322 0.0 0.0 0.00 0.02 0.00 96 1015.9
20260902132551 46 322 0.0 0.0 0.00 0.02 0.00 96 1015.9
20260902131603 46 118 0.0 0.0 0.00 0.02 0.00 96 1015.9
20260902125508 46 120 0.0 0.0 0.00 0.02 0.00 95 1015.7
20260902124451 47 120 0.0 0.0 0.00 0.02 0.00 95 1015.8
20260902123451 47 120 0.0 0.0 0.00 0.02 0.00 95 1015.6
20260902122448 47 120 0.0 0.0 0.00 0.02 0.00 95 1015.6
20260902121506 47 120 0.0 0.0 0.00 0.02 0.00 95 1015.5
20260902120459 47 120 0.0 0.0 0.00 0.02 0.00 95 1015.4
20260902115453 47 120 0.0 0.0 0.00 0.02 0.00 96 1015.4
20260902114504 47 155 0.0 0.0 0.00 0.02 0.00 96 1015.2
20260902113432 47 249 0.0 0.0 0.00 0.02 0.00 96 1015.3
20260902111325 46 155 0.0 0.0 0.00 0.02 0.00 96 1015.0
20260902110252 46 120 0.0 0.0 0.00 0.02 0.00 96 1014.9
20260902105306 46 120 0.0 0.0 0.00 0.02 0.00 96 1014.8
20260902104328 46 120 0.0 0.0 0.00 0.02 0.00 96 1014.7
20260902103345 46 120 0.0 0.0 0.00 0.02 0.00 96 1014.8
20260902102327 46 120 0.0 0.0 0.00 0.02 0.00 96 1014.7
20260902101321 46 120 0.0 0.0 0.00 0.02 0.00 96 1014.8
20260902100248 46 120 0.0 0.0 0.00 0.02 0.00 96 1014.8
20260902095231 46 120 0.0 0.0 0.00 0.02 0.00 96 1014.9
20260902094240 46 131 0.0 1.0 0.00 0.02 0.00 96 1014.8
20260902093255 45 345 0.0 0.0 0.00 0.02 0.00 96 1014.9
20260902091205 45 345 0.0 0.0 0.00 0.02 0.00 96 1014.9
20260902090849 46 345 0.0 0.0 0.00 0.03 0.00 96 1014.9
20260902085833 46 340 0.0 0.0 0.00 0.03 0.00 96 1014.9
20260902084841 46 120 0.0 0.0 0.00 0.03 0.00 96 1014.8
20260902082808 46 120 0.0 0.0 0.00 0.03 0.00 96 1014.6
20260902081801 46 120 0.0 0.0 0.00 0.03 0.00 96 1014.6
20260902075640 46 120 0.0 0.0 0.00 0.03 0.00 95 1014.7
20260902074631 46 120 0.0 0.0 0.00 0.03 0.00 96 1014.5
20260902073607 47 143 0.0 0.0 0.00 0.03 0.00 96 1014.5
20260902072608 47 143 0.0 0.0 0.00 0.03 0.00 96 1014.4
20260902070417 47 143 0.0 0.0 0.00 0.03 0.00 95 1014.4
20260902065411 48 143 0.0 0.0 0.00 0.03 0.00 95 1014.3
20260902064403 48 145 0.0 0.0 0.00 0.03 0.00 95 1014.4
20260902063413 48 145 0.0 0.0 0.00 0.03 0.00 95 1014.2
20260902062348 48 148 0.0 0.0 0.00 0.03 0.00 94 1014.1
20260902061330 48 148 0.0 0.0 0.00 0.03 0.00 94 1014.0
20260902060336 48 148 0.0 0.0 0.00 0.03 0.00 94 1013.8
20260902053103 50 148 0.0 0.0 0.00 0.03 0.03 94 1013.6
20260902045915 50 151 0.0 0.0 0.00 0.03 0.03 92 1013.2
20260902043800 51 150 0.0 0.0 0.00 0.03 0.03 92 1013.3
20260902041713 52 117 0.0 0.0 0.00 0.03 0.03 90 1013.4
20260902040711 52 117 0.0 0.0 0.00 0.03 0.03 90 1013.2
20260902035719 53 117 0.0 0.0 0.00 0.03 0.03 89 1013.2
20260902034734 53 117 0.0 0.0 0.00 0.03 0.03 87 1013.2
20260902033747 54 117 0.0 0.0 0.00 0.03 0.03 87 1013.0
20260902031724 55 117 0.0 0.0 0.00 0.03 0.03 84 1012.7
20260902030741 56 117 0.0 0.0 0.00 0.03 0.03 83 1012.6
20260902025755 57 117 0.0 0.0 0.00 0.03 0.03 82 1012.3
20260902024744 57 117 0.0 0.0 0.00 0.03 0.03 79 1012.1
20260902023733 58 117 0.0 0.0 0.00 0.03 0.03 77 1011.9
20260902021610 60 146 0.0 0.0 0.00 0.03 0.03 72 1011.6
20260902020538 60 148 0.0 0.0 0.00 0.03 0.03 72 1011.4
20260902015516 61 148 0.0 0.0 0.00 0.03 0.03 71 1011.3
20260902014519 62 148 0.0 0.0 0.00 0.03 0.03 67 1011.4
20260902013526 63 148 0.0 0.0 0.00 0.03 0.03 63 1011.2
20260902012454 65 64 0.0 0.0 0.00 0.03 0.03 60 1011.1
20260902011500 67 32 0.0 0.0 0.00 0.03 0.03 55 1011.2
20260902010429 67 27 1.0 5.0 0.00 0.03 0.03 55 1011.3
20260902004256 67 344 3.0 13.0 0.00 0.03 0.03 54 1011.5
20260902003236 68 15 4.0 13.0 0.00 0.03 0.03 50 1011.5
20260902001148 71 12 6.0 14.0 0.00 0.03 0.03 52 1011.4
20260902000138 72 6 6.0 14.0 0.00 0.03 0.03 49 1011.3
20260901235133 73 16 1.0 5.0 0.00 0.03 0.03 53 1010.9
20260901234140 74 340 0.0 3.0 0.00 0.03 0.03 49 1010.7
20260901233111 75 344 0.0 0.0 0.00 0.03 0.03 48 1010.6
20260901232106 75 347 0.0 0.0 0.00 0.03 0.03 47 1010.6
20260901231105 74 350 0.0 1.0 0.00 0.03 0.03 50 1010.7
20260901230104 76 282 0.0 1.0 0.00 0.03 0.03 47 1010.7
20260901225104 76 287 0.0 0.0 0.00 0.03 0.03 50 1010.6
20260901224042 77 334 0.0 1.0 0.00 0.03 0.03 48 1010.7
20260901223050 77 148 0.0 4.0 0.00 0.03 0.03 47 1010.9
20260901222032 78 204 0.0 1.0 0.00 0.03 0.03 50 1010.9
20260901221013 76 294 0.0 0.0 0.00 0.03 0.03 53 1011.2
20260901213819 74 146 0.0 3.0 0.00 0.12 0.03 55 1011.9
20260901212815 73 137 0.0 5.0 0.00 0.15 0.03 53 1012.1
20260901211817 73 123 1.0 5.0 0.00 0.15 0.03 57 1012.2
20260901210804 74 15 0.0 0.0 0.00 0.17 0.03 55 1012.6
20260901205807 72 5 1.0 4.0 0.00 0.17 0.03 56 1013.0
20260901204814 71 342 1.0 5.0 0.00 0.17 0.03 60 1013.3
20260901203747 70 271 0.0 1.0 0.00 0.17 0.03 62 1013.5
20260901202744 69 166 0.0 0.0 0.00 0.17 0.03 63 1013.5
20260901200613 66 338 0.0 0.0 0.00 0.20 0.03 67 1013.9
20260901195541 65 11 0.0 0.0 0.00 0.20 0.03 72 1014.1
20260901194553 64 194 0.0 1.0 0.00 0.20 0.03 80 1014.2
20260901192435 61 148 0.0 0.0 0.00 0.20 0.03 84 1014.6
20260901191425 60 122 0.0 0.0 0.00 0.20 0.03 88 1014.9
20260901185257 59 172 2.0 9.0 0.05 0.20 0.03 86 1015.0
20260901184243 61 156 0.0 1.0 0.10 0.19 0.02 84 1015.0
20260901183216 62 153 0.0 9.0 0.00 0.17 0.00 80 1015.1
20260901181103 67 139 0.0 2.0 0.00 0.17 0.00 70 1014.8
20260901180120 67 338 0.0 0.0 0.00 0.17 0.00 68 1014.9
20260901175131 67 338 0.0 0.0 0.00 0.17 0.00 68 1014.8
20260901174144 66 125 0.0 2.0 0.00 0.17 0.00 68 1014.7
20260901173207 64 141 0.0 1.0 0.00 0.17 0.00 76 1014.9
20260901172224 64 11 0.0 0.0 0.00 0.17 0.00 78 1015.0
20260901171152 64 336 1.0 6.0 0.00 0.17 0.00 75 1015.0
20260901170119 64 348 0.0 4.0 0.00 0.17 0.00 77 1015.1